Regional Weather Roundup
Issued by NWS Cleveland, OH

Home | Current Version | Previous Version | Graphics & Text | Print | Product List | Glossary On
Versions: 1 2 3 4 5 6 7 8 9 10 11 12 13 14 15 16 17 18 19 20 21 22 23 24 25 26 27 28 29 30 31 32 33 34 35 36 37 38 39 40 41 42 43 44 45 46 47 48 49 50
000
ASUS41 KCLE 281310
RWRCLE
OHIO REGIONAL WEATHER ROUNDUP
NATIONAL WEATHER SERVICE CLEVELAND, OH
900 AM EDT WED JUN 28 2017

NOTE: "FAIR" INDICATES FEW OR NO CLOUDS BELOW 12,000 FEET WITH NO
SIGNIFICANT WEATHER AND/OR OBSTRUCTIONS TO VISIBILITY.

OHZ001>008-015>018-024>027-034-035-043-044-281400-
   NORTHWEST OHIO

CITY           SKY/WX    TMP DP  RH WIND       PRES   REMARKS
DEFIANCE       SUNNY     63  51  65 VRB5      30.12F
FINDLAY        SUNNY     67  50  54 S7        30.13S
TOLEDO EXPRESS SUNNY     63  53  70 S5        30.12S
TOLEDO EXEC    SUNNY     66  52  60 SW7       30.14S
LIMA           SUNNY     64  52  64 S9        30.14F
$$

OHZ009>014-019>023-028>033-038-089-281400-
   NORTHEAST OHIO

CITY           SKY/WX    TMP DP  RH WIND       PRES   REMARKS
CLE-HOPKINS    SUNNY     67  51  56 SW7       30.18R
CLE-LAKEFRONT  SUNNY     67  48  50 SW9       30.15R
CUY CO. ARPT   SUNNY     68  50  52 SW14      30.16R
LORAIN-ELYRIA  SUNNY     64  47  53 W7        30.17R
ASHTABULA      SUNNY     64  53  67 W7        30.16R
AKRON-CANTON   MOSUNNY   64  46  52 SW7       30.19R
WOOSTER        SUNNY     63  49  60 SW7       30.19R
MANSFIELD      SUNNY     65  48  54 SW6       30.18R
YOUNGSTOWN     SUNNY     64  50  60 SW8       30.18R
$$

OHZ042-051>053-060>062-070>072-077>081-281400-
  SOUTHWEST OHIO

CITY           SKY/WX    TMP DP  RH WIND       PRES   REMARKS
CINC-COVINGTON PTSUNNY   66  55  67 S9        30.17R
CINC-LUNKEN    SUNNY     61  59  93 CALM      30.19R
HAMILTON       SUNNY     65  59  81 CALM      30.17S
DAYTON         MOSUNNY   65  51  60 S8        30.17S
WRIGHT-PAT AFB PTSUNNY   65  54  66 SE5       30.16S
DAYTON GENERAL SUNNY     64  53  67 S7        30.17R
WILMINGTON     SUNNY     65  55  70 S6        30.18R
$$

OHZ036-037-039>041-045>050-054>059-063>069-073>076-082>088-281400-
  CENTRAL AND SOUTHEAST OHIO

CITY           SKY/WX    TMP DP  RH WIND       PRES   REMARKS
COLUMBUS       SUNNY     63  53  70 CALM      30.18R
OSU AIRPORT    SUNNY     65  54  67 S6        30.18S
BOLTON FIELD   SUNNY     63  55  77 CALM      30.19R
RICKENBACK AFB SUNNY     61  54  78 CALM      30.18S
NEWARK         SUNNY     62  52  69 CALM      30.19R
MARION         SUNNY     65  50  58 S7        30.17F
LANCASTER      SUNNY     63  54  72 CALM      30.19R
ZANESVILLE     SUNNY     60  53  77 CALM      30.21R
NEW PHILLY     NOT AVBL
$$



USA.gov is the U.S. government's official web portal to all federal, state and local government web resources and services.